STARLINK-37288, 68551

Orbit data source: Space-Track

STARLINK-37288, 68551 is a payload satellite owned by SpaceX/Seattle (US) in LEO that was launched on Thu, 02 Apr 2026 UTC via an FALCON 9 launch vehicle from the Air Force Eastern Test Range (AFETR). Payload-class satellites include a variety of spacecraft equipped with specific instruments for various scientific and technological missions. These include communications satellites like Starlink; space stations such as the ISS; scientific satellites like the Hubble; Earth observation satellites from companies like Planet Labs, Umbra, and HawkEye 360; GPS; miniature CubeSats for education and research; and military/defense satellites.

Loading next visibility...
Identifier
68551, 2026-070K
Orbit
LEO
Country
Flag of USUS
Related business
Manufacturer
SpaceX/Seattle
Mission
Operational spacecraft
Bus & Motor
STARLINK V2MO, Unknown motor
Mass
575 kg wet, ~530 kg dry
Launch date (UTC)
2026-04-02 (2 months ago)
Launch vehicle
FALCON 9
Launch site
Air Force Eastern Test Range (AFETR)
Object type
Payload
Rocket body
Debris
Shape & HBR
Unknown shape, 14.5 m
Radar Cross Section
RCS unknown

Expand to show TLE details & history
Last TLE update: 17 hours ago

TLE from 17 hours ago
0 STARLINK-37288
1 68551U 26070K   26145.32179374  .00026729  00000-0  79917-3 0  9996
2 68551  53.1600   6.1985 0001104  86.7657 273.3472 15.34409323  8297
Epoch: 2026-05-25T07:43Z
TLE epoch observation values (Epoch: 2026-05-25T07:43:22.979Z)
Latitude
Longitude
7.4415°
Altitude
463.533 km
Speed
7.636 km/s
True Right ascension
00h 24m 47s
True Declination
0° 00' 00"
Sunlit
Object was in daylight at epoch
Visualization orbit readout
Latitude
Unknown
Longitude
Unknown
Altitude
Unknown
Speed
Unknown
Apparent Right ascension
Unknown
Apparent Declination
Unknown
Sunlit
N/A
Visualization observer readout
Local Sidereal Time
10:22:46
Azimuth
Unknown
Elevation
Unknown
Doppler factor
Unknown
Orbital elements
Apogee altitude
463.688 km
Perigee altitude
462.177 km
Semi-major axis
6,841.069 km
Eccentricity
0.00011
Inclination
53.16°
RAAN
6.1985°
Arg. of periapsis
86.7657°
True anomaly
273.33457°
Mean anomaly
273.3472°
Eccentric anomaly
273.34089°
Mean motion
3.83581 °/min
Orbital period
93.85 mins
BSTAR
0.00079917
Loading maneuver chart data...
Computing Atmospheric mass density...
Loading historical data...
Loading historical data...
Loading historical data...
Loading historical data...
Loading historical data...
Loading historical data...
Loading historical data...

Documentation

Showing up to 5 results
|